www.pogodaiklimat.ru

Погода и климат >> Архив погоды >> Парагвай >> Пилар


ПОГОДА в Пиларе

  • Прогноз погоды в Пиларе
  • Монитор погоды в Пиларе

АРХИВ ПОГОДЫ в Пиларе

Время (UTC), дата Ветер
(напр.,м/с)
 
Видим.   Явления Облачность Т
(С)
Тd
(С)
f
(%)
Тe
(С)
Тes
(С)
Комфортность P
(гПа)
Po
(гПа)
Тmin
(С)
Tmax
(С)
R
(мм)
R24
(мм)
S
(см)
21 16.05 В 2 20 км 1/1 1200 м
[Cu med, cong]
+24.2 +15.6 59 +27 +27 жарко 1017.7 1010.9
00 17.05 штиль 0 20 км 4/4 1020 м
[Cu Sc]
+20.0 +14.9 72 +22 +22 комфорт 1018.3 1011.4 +24.8
09 17.05 В 2 20 км 4/4 1020 м
[Cu Sc]
+18.0 +14.7 81 +19 +19 1016.8 1009.9
12 17.05 В 2 20 км 1/0
[Ci]
+19.2 +15.5 79 +22 +23 комфорт 1017.0 1010.1 +16.4
15 17.05 В 3 20 км 4/1 1200 м
[Cu hum Ci]
+24.6 +17.2 63 +28 +35 душно 1016.4 1009.7
18 17.05 С 4 20 км 4/3 1200 м
[Cu med, cong Ci]
+25.8 +16.1 55 +29 +33 душно 1014.1 1006.4
21 17.05 С 2 20 км 3/3 1020 м
[Sc diur, vesp]
+25.6 +16.1 56 +29 +29 душно 1012.3 1005.6
00 18.05 С 2 20 км ясно +21.6 +17.4 77 +26 +26 душно 1012.5 1005.7 +26.5
09 18.05 С 3 20 км 3/3 1020 м
[Cu Sc]
+19.8 +16.8 83 +23 +23 комфорт 1012.5 1005.7
12 18.05 С 4 20 км 1/1 1200 м
[Cu hum]
+20.8 +17.9 83 +25 +26 комфорт 1013.9 1007.1 +19.4
15 18.05 С 4 20 км ясно +25.0 +16.9 61 +29 +35 душно 1015.6 1008.9
18 18.05 СВ 2 20 км 4/4 1020 м
[Cu Sc]
+27.2 +17.5 55 +31 +35 душно 1013.9 1007.2
21 18.05 В 1 20 км 3/3 1020 м
[Cu Sc]
+26.2 +18.0 61 +31 +31 очень
душно
1012.9 1006.2
00 19.05 штиль 0 20 км 6/6 800 м
[Cu Sc]
+22.8 +16.6 68 +27 +27 душно 1013.9 1007.1 +27.2
03 19.05 СВ 2 20 км 10/4 800 м
[Sc Ac As]
+22.4 +18.3 78 +28 +28 душно 1014.3 1007.5
06 19.05 СВ 2 20 км 10/4 800 м
[Sc Ac As]
+21.8 +18.9 84 +27 +27 душно 1013.3 1006.5
09 19.05 СВ 2 20 км 10/4 800 м
[Sc Ac As]
+21.8 +18.9 84 +27 +27 душно 1012.5 1005.7
12 19.05 Ю 2 20 км 10/6 500 м
[Sc Ac As]
+21.4 +19.2 87 +26 +26 душно 1014.3 1007.5 +20.8
15 19.05 Ю 2 20 км {дождь} 10/6 500 м
[Sc Ac As]
+20.0 +18.5 91 +24 +25 комфорт 1015.5 1008.7 1
18 19.05 Ю 4 20 км 10/6 500 м
[Sc Ac As]
+21.6 +19.3 87 +27 +27 душно 1013.7 1006.9
21 19.05 В 3 20 км {дождь} 10/6 300 м
[Sc Ac As]
+20.4 +19.5 95 +25 +25 комфорт 1012.8 1006.0 4
00 20.05 В 3 20 км 10/6 300 м
[Sc Ac As]
+20.8 +19.5 92 +26 +26 душно 1012.8 1006.0 +23.5 5
03 20.05 В 2 20 км 5/5 800 м
[Sc]
+20.6 +19.6 94 +26 +26 душно 1013.2 1006.4
09 20.05 В 1 20 км 10/10 300 м
[Sc]
+20.0 +18.4 91 +24 +24 комфорт 1012.0 1005.2
12 20.05 СВ 1 20 км {морось} 10/10 420 м
[Sc]
+20.8 +19.5 92 +26 +26 душно 1012.3 1005.5 +20.0 0.3
15 20.05 СВ 2 20 км 10/10 420 м
[Sc]
+22.0 +20.4 91 +28 +28 душно 1013.2 1006.4
18 20.05 С 2 20 км 10/5 600 м
[Cu Sc Ac As]
+23.4 +21.1 87 +31 +32 очень
душно
1010.5 1003.8
21 20.05 В 2 20 км {дождь} 10/4 500 м
[Sc Ac As]
+21.8 +20.4 92 +28 +28 душно 1009.8 1003.1 0.5
00 21.05 штиль 0 20 км 10/6 300 м
[Sc Ac As]
+21.0 +19.4 91 +25 +25 комфорт 1011.1 1004.3 +23.5
03 21.05 В 4 20 км {дождь} 10/10 300 м
[Sc]
+20.6 +19.5 93 +25 +25 комфорт 1011.5 1004.7 5
09 21.05 В 3 20 км {дождь} 10/10 300 м
[Sc]
+20.2 +19.6 96 +24 +24 комфорт 1012.0 1005.2 20
12 21.05 Ю 3 5000 м сильн. дождь 10/10 300 м
[Sc]
+20.0 +16.5 80 +23 +23 комфорт 1012.5 1005.7 +19.8 5
15 21.05 Ю 3 20 км {дождь} 10/10 300 м
[Sc]
+20.0 +18.6 92 +24 +24 комфорт 1014.3 1007.5 3
18 21.05 Ю 3 20 км {дождь} 10/10 420 м
[Sc]
+20.8 +19.4 92 +26 +26 душно 1012.5 1005.7 0.5
21 21.05 Ю 6 20 км 10/10 420 м
[Sc]
+20.4 +18.1 87 +24 +24 комфорт 1012.8 1006.0
00 22.05 Ю 8 20 км 10/10 300 м
[Sc]
+18.4 +15.9 85 +18 +18 1014.4 1007.5 +22.0
03 22.05 Ю 8 20 км 10/10 300 м
[Sc]
+17.0 +15.0 88 +16 +16 1015.4 1008.5
09 22.05 Ю 6 20 км 10/10 300 м
[Sc]
+17.2 +13.4 78 +16 +16 1015.9 1009.0
12 22.05 Ю 3 20 км 10/10 300 м
[Sc]
+17.2 +13.4 78 +17 +17 1017.1 1010.2 +16.5 4
15 22.05 Ю 2 20 км 8/8 600 м
[Sc]
+18.4 +14.4 78 +19 +21 1017.5 1010.6
18 22.05 Ю 4 20 км 9/9 300 м
[Sc]
+19.6 +15.0 75 +21 +22 комфорт 1015.5 1008.7
21 22.05 Ю 3 20 км 10/10 420 м
[Sc]
+18.4 +14.5 78 +19 +19 1015.6 1008.7
00 23.05 Ю 1 20 км 10/10 600 м
[Sc]
+18.0 +14.5 80 +19 +19 1016.5 1009.6 +20.5
03 23.05 штиль 0 20 км 10/10 600 м
[Sc]
+17.6 +14.7 83 +18 +18 1016.9 1010.0
12 23.05 штиль 0 5000 м морось 10/10 240 м
[Sc]
+16.0 +14.2 89 +16 +16 1018.0 1011.0 +16.0 0.5
15 23.05 Ю 4 20 км {морось} 10/10 420 м
[Sc]
+18.2 +15.9 86 +18 +18 1018.2 1011.3 0.0
18 23.05 Ю 4 20 км 10/10 420 м
[Sc]
+18.2 +15.9 86 +18 +18 1016.6 1009.7

 

Местоположение метеостанции Пилар (Парагвай): широта -26.85 долгота -58.31 высота над уровнем моря 56 м.

В архиве по умолчанию представлена погода в Пиларе за последнюю неделю. Архивные данные за месяц целиком и за предыдущие месяцы, начиная с января 2011 года, Вы можете получить, выбрав интересующий диапазон дат из раскрывающегося списка и нажав кнопку "Ввод!".


*Определитесь, кто Вы:
робот инопланетянин человек

Внимание! Время в таблицах - всемирное. Для получения местного времени необходимо прибавить поправку, которая равна -4 ч.

Смотрите также архив погоды в соседних городах и на ближайших метеорологических станциях:

Погода в Формосе (Аргентина) (73 км)
Погода в Корриентесе (Аргентина) (80 км)
Погода в Ресистенсии (Аргентина) (99 км)
Погода в Сан Хуан Батистута (Парагвай) (117 км)
Погода в Куйкуйо (Парагвай) (150 км)
Погода в Парагуари (Парагвай) (180 км)
Погода в Асунсьоне (Парагвай) (195 км)
Погода в Каасапе (Парагвай) (209 км)
Погода в Пресиденсиа-Роке-Саэнс-Пеньи (Аргентина) (216 км)
Погода в Вильяррике (Парагвай) (224 км)

Пояснения к столбцам:

Ветер - указаны скорость ветра в м/с - средняя за 10 мин, порывы в срок и между сроками (в фигурных скобках) и направление, откуда дует ветер: С - северный, СВ - северо-восточный, В - восточный, ЮВ - юго-восточный, Ю - южный, ЮЗ - юго-западный, З - западный, СЗ - северо-западный.
Видимость - горизонтальная дальность видимости в метрах или километрах. При видимости от 1 до 10 км при отсутствии осадков обычно наблюдается дымка, при ухудшении видимости до 1 км и менее - туман. В сухую погоду видимость может ухудшаться дымом, пылью или мглою.
Явления - указаны атмосферные явления, наблюдавшиеся в срок или в последний час перед сроком; фигурными скобками обозначены явления, наблюдавшиеся между сроками (за 1-3 часа до срока); квадратными скобками обозначены град или гололедные отложения с указанием их диаметра в мм.
Облачность - указаны через наклонную черту общая и нижняя облачность в баллах и высота нижней границы облаков в метрах; квадратными скобками обозначены формы облаков: Ci - перистые, Cs - перисто-слоистые, Cc - перисто-кучевые, Ac - высококучевые, As - высокослоистые, Sc - слоисто-кучевые, Ns - слоисто-дождевые, Cu - кучевые, Cb - кучево-дождевые. Подробнее классификацию облаков см. в Атласе облаков (PDF).
T - Температура воздуха - температура, измеренная на высоте 2 м над землей.
Td - Температура точки росы - температура, при понижении до которой содержащийся в воздухе водяной пар достигнет насыщения.
f - Относительная влажность воздуха - влажноcть воздуха, измеренная на высоте 2 м над землей.
Te - Эффективная температура - температура, которую ощущает одетый по сезону человек в тени. Характеристика душности погоды. При расчете учитывается влияние влажности воздуха и скорости ветра на теплоощущения человека.
Tes - Эффективная температура на солнце - температура, которую ощущает человек, с поправкой на солнечный нагрев. Характеристика знойности погоды. Зависит от высоты солнца над горизонтом, облачности и скорости ветра. Ночью, в пасмурную погоду, а также при ветре 12 м/с и более поправка равна нулю.
P - Атмосферное давление - приведенное к уровню моря атмосферное давление.
Po - Атмосферное давление - измеренное на уровне метеостанции атмосферное давление.
Tmin - Минимальная температура - минимум температуры воздуха на высоте 2 м над землей.
Tmax - Максимальная температура - максимум температуры воздуха на высоте 2 м над землей.
R - Количество осадков - Количество выпавших осадков за период времени, мм. При наведении курсора мыши на число - период времени, за который выпало указанное количество осадков.
R24 - Количество осадков - Количество выпавших осадков за 24 часа, мм.
S - Снежный покров - Высота снежного покрова, см. При наведении курсора мыши на число - состояние снежного покрова и степень покрытия местности в баллах.